ONEWEB-0317 (49103 NORAD) Tracking and Keplerian Element Data

This shows tracking and keplerian element data for the satellite.

Feedback or suggestion? Click here.




ElementValue
Catalog49103
NameONEWEB-0317
Epoch Orbit561
Epoch Day262.16668981
Epoch Year2021
RAAN356.4075
Inclination87.4415
Eccentricity0.0017443
Argument of Perigee192.9866
Mean Anonmoly285.6586
Mean Motion15.23821126
Decay Rate-0.00863654
L11 49103U 21075AE 21262.16668981 -.00863654 00000-0 -38804-1 0 9998
L22 49103 87.4415 356.4075 0017443 192.9866 285.6586 15.23821126 5611

Live tracking and technical data element details for ONEWEB-0317 (NORAD 49103). ONEWEB-0317 can be tracked NOW for your location showing map with azimuth and elevation plus other details from your city location.

Track the satellite on the map from your city or location and see movement details for azimuth, elevation, latitude, longitude, range, height, and movement on the map or in text.







IsCatalogInMostPopularTable: catalog: 49103, numindb: 6
Update: records affected: 1



GetName: 49103 ONEWEB-0317

Hit Count: updated at: Fri, 24 Sep 2021 18:07:05 GMT